Year,Month,Day,Hour,Minute,Value (Times are PST for temperature in C)
2009,08,23,08,29,16.10
2009,08,23,08,30,16.10
2009,08,23,08,31,16.20
2009,08,23,08,32,16.20
2009,08,23,08,33,16.30
2009,08,23,08,34,16.30
2009,08,23,08,35,16.30
2009,08,23,08,36,16.30
2009,08,23,08,37,16.30
2009,08,23,08,38,16.30
2009,08,23,08,39,16.40
2009,08,23,08,40,16.50
2009,08,23,08,41,16.60
2009,08,23,08,42,16.50
2009,08,23,08,43,16.50
2009,08,23,08,44,16.40
2009,08,23,08,45,16.30
2009,08,23,08,46,16.30
2009,08,23,08,47,16.40
2009,08,23,08,48,16.40
2009,08,23,08,49,16.50
2009,08,23,08,50,16.60
2009,08,23,08,51,16.70
2009,08,23,08,52,16.70
2009,08,23,08,53,16.70
2009,08,23,08,54,16.80
2009,08,23,08,55,16.90
2009,08,23,08,56,17.00
2009,08,23,08,57,17.10
2009,08,23,08,58,17.10
2009,08,23,08,59,17.10
2009,08,23,09,00,17.00
2009,08,23,09,01,16.90
2009,08,23,09,02,16.80
2009,08,23,09,03,16.60
2009,08,23,09,04,16.50
2009,08,23,09,05,16.50
2009,08,23,09,06,16.40
2009,08,23,09,07,16.40
2009,08,23,09,08,16.40
2009,08,23,09,09,16.40
2009,08,23,09,10,16.50
2009,08,23,09,11,16.50
2009,08,23,09,12,16.60
2009,08,23,09,13,16.60
2009,08,23,09,14,16.60
2009,08,23,09,15,16.60
2009,08,23,09,16,16.60
2009,08,23,09,17,16.60
2009,08,23,09,18,16.70
2009,08,23,09,19,16.70
2009,08,23,09,20,16.70
2009,08,23,09,21,16.70
2009,08,23,09,22,16.70
2009,08,23,09,23,16.70
2009,08,23,09,24,16.60
2009,08,23,09,25,16.50
2009,08,23,09,26,16.40
2009,08,23,09,27,16.40
2009,08,23,09,28,16.40
2009,08,23,09,29,16.50
2009,08,23,09,30,16.50
2009,08,23,09,31,16.60
2009,08,23,09,32,16.60
2009,08,23,09,33,16.70
2009,08,23,09,34,16.70
2009,08,23,09,35,16.70
2009,08,23,09,36,16.80
2009,08,23,09,37,16.80
2009,08,23,09,38,16.80
2009,08,23,09,39,16.80
2009,08,23,09,40,16.90
2009,08,23,09,41,16.90
2009,08,23,09,42,17.00
2009,08,23,09,43,17.00
2009,08,23,09,44,17.00
2009,08,23,09,45,17.00
2009,08,23,09,46,17.00
2009,08,23,09,47,16.90
2009,08,23,09,48,16.90
2009,08,23,09,49,16.90
2009,08,23,09,50,17.00
2009,08,23,09,51,17.10
2009,08,23,09,52,17.00
2009,08,23,09,53,17.10
2009,08,23,09,54,17.10
2009,08,23,09,55,17.20
2009,08,23,09,56,17.20
2009,08,23,09,57,17.20
2009,08,23,09,58,17.30
2009,08,23,09,59,17.40
2009,08,23,10,00,17.50
2009,08,23,10,01,17.60
2009,08,23,10,02,17.70
2009,08,23,10,03,17.70
2009,08,23,10,04,17.80
2009,08,23,10,05,17.70
2009,08,23,10,06,17.70
2009,08,23,10,07,17.70
2009,08,23,10,08,17.70
2009,08,23,10,09,17.70
2009,08,23,10,10,17.70
2009,08,23,10,11,17.60
2009,08,23,10,12,17.50
2009,08,23,10,13,17.50
2009,08,23,10,14,17.50
2009,08,23,10,15,17.50
2009,08,23,10,16,17.70
2009,08,23,10,17,17.70
2009,08,23,10,18,17.90
2009,08,23,10,19,18.00
2009,08,23,10,20,18.10
2009,08,23,10,21,18.20
2009,08,23,10,22,18.20
2009,08,23,10,23,18.20
2009,08,23,10,24,18.10
2009,08,23,10,25,18.00
2009,08,23,10,26,17.90
2009,08,23,10,27,18.00
2009,08,23,10,28,18.00
2009,08,23,10,29,18.00
2009,08,23,10,30,18.10
2009,08,23,10,31,18.10
2009,08,23,10,32,18.20
2009,08,23,10,33,18.10
2009,08,23,10,34,18.10
2009,08,23,10,35,18.20
2009,08,23,10,36,18.20
2009,08,23,10,37,18.20
2009,08,23,10,38,18.30
2009,08,23,10,39,18.40
2009,08,23,10,40,18.40
2009,08,23,10,41,18.40
2009,08,23,10,42,18.50
2009,08,23,10,43,18.50
2009,08,23,10,44,18.60
2009,08,23,10,45,18.60
2009,08,23,10,46,18.70
2009,08,23,10,47,18.70
2009,08,23,10,48,18.60
2009,08,23,10,49,18.60
2009,08,23,10,50,18.60
2009,08,23,10,51,18.50
2009,08,23,10,52,18.40
2009,08,23,10,53,18.40
2009,08,23,10,54,18.40
2009,08,23,10,55,18.40
2009,08,23,10,56,18.40
2009,08,23,10,57,18.50
2009,08,23,10,58,18.50
2009,08,23,10,59,18.60
2009,08,23,11,00,18.60
2009,08,23,11,01,18.60
2009,08,23,11,02,18.60
2009,08,23,11,03,18.60
2009,08,23,11,04,18.60
2009,08,23,11,05,18.60
2009,08,23,11,06,18.50
2009,08,23,11,07,18.40
2009,08,23,11,08,18.30
2009,08,23,11,09,18.30
2009,08,23,11,10,18.40
2009,08,23,11,11,18.40
2009,08,23,11,12,18.40
2009,08,23,11,13,18.40
2009,08,23,11,14,18.30
2009,08,23,11,15,18.20
2009,08,23,11,16,18.20
2009,08,23,11,17,18.10
2009,08,23,11,18,18.00
2009,08,23,11,19,18.10
2009,08,23,11,20,18.10
2009,08,23,11,21,18.10
2009,08,23,11,22,18.20
2009,08,23,11,23,18.30
2009,08,23,11,24,18.30
2009,08,23,11,25,18.40
2009,08,23,11,26,18.50
2009,08,23,11,27,18.60
2009,08,23,11,28,18.80
2009,08,23,11,29,18.90
2009,08,23,11,30,18.90
2009,08,23,11,31,19.10
2009,08,23,11,32,19.10
2009,08,23,11,33,19.10
2009,08,23,11,34,19.00
2009,08,23,11,35,18.90
2009,08,23,11,36,18.80
2009,08,23,11,37,18.70
2009,08,23,11,38,18.60
2009,08,23,11,39,18.70
2009,08,23,11,40,18.70
2009,08,23,11,41,18.80
2009,08,23,11,42,18.80
2009,08,23,11,43,18.80
2009,08,23,11,44,18.80
2009,08,23,11,45,18.80
2009,08,23,11,46,18.70
2009,08,23,11,47,18.70
2009,08,23,11,48,18.60
2009,08,23,11,49,18.60
2009,08,23,11,50,18.60
2009,08,23,11,51,18.60
2009,08,23,11,52,18.70
2009,08,23,11,53,18.80
2009,08,23,11,54,18.90
2009,08,23,11,55,18.90
2009,08,23,11,56,18.80
2009,08,23,11,57,18.60
2009,08,23,11,58,18.60
2009,08,23,11,59,18.60
2009,08,23,12,00,18.60
2009,08,23,12,01,18.70
2009,08,23,12,02,18.80
2009,08,23,12,03,18.90
2009,08,23,12,04,19.00
2009,08,23,12,05,19.10
2009,08,23,12,06,19.10
2009,08,23,12,07,18.90
2009,08,23,12,08,18.80
2009,08,23,12,09,18.70
2009,08,23,12,10,18.70
2009,08,23,12,11,18.70
2009,08,23,12,12,18.80
2009,08,23,12,13,18.90
2009,08,23,12,14,19.00
2009,08,23,12,15,19.00
2009,08,23,12,16,19.00
2009,08,23,12,17,18.90
2009,08,23,12,18,18.90
2009,08,23,12,19,18.80
2009,08,23,12,20,18.80
2009,08,23,12,21,18.70
2009,08,23,12,22,18.70
2009,08,23,12,23,18.70
2009,08,23,12,24,18.70
2009,08,23,12,25,18.80
2009,08,23,12,26,18.80
2009,08,23,12,27,19.00
2009,08,23,12,28,19.10
2009,08,23,12,29,19.10
2009,08,23,12,30,19.20
2009,08,23,12,31,19.20
2009,08,23,12,32,19.20
2009,08,23,12,33,19.20
2009,08,23,12,34,19.10
2009,08,23,12,35,19.10
2009,08,23,12,36,19.10
2009,08,23,12,37,19.10
2009,08,23,12,38,19.10
2009,08,23,12,39,19.10
2009,08,23,12,40,19.00
2009,08,23,12,41,19.10
2009,08,23,12,42,19.10
2009,08,23,12,43,19.20
2009,08,23,12,44,19.20
2009,08,23,12,45,19.20
2009,08,23,12,46,19.00
2009,08,23,12,47,18.90
2009,08,23,12,48,19.00
2009,08,23,12,49,19.10
2009,08,23,12,50,19.20
2009,08,23,12,51,19.40
2009,08,23,12,52,19.50
2009,08,23,12,53,19.70
2009,08,23,12,54,19.70
2009,08,23,12,55,19.60
2009,08,23,12,56,19.50
2009,08,23,12,57,19.40
2009,08,23,12,58,19.40
2009,08,23,12,59,19.30
2009,08,23,13,00,19.30
2009,08,23,13,01,19.30
2009,08,23,13,02,19.20
2009,08,23,13,03,19.20
2009,08,23,13,04,19.20
2009,08,23,13,05,19.30
2009,08,23,13,06,19.20
2009,08,23,13,07,19.20
2009,08,23,13,08,19.20
2009,08,23,13,09,19.10
2009,08,23,13,10,19.10
2009,08,23,13,11,19.10
2009,08,23,13,12,19.20
2009,08,23,13,13,19.20
2009,08,23,13,14,19.30
2009,08,23,13,15,19.40
2009,08,23,13,16,19.30
2009,08,23,13,17,19.30
2009,08,23,13,18,19.20
2009,08,23,13,19,19.20
2009,08,23,13,20,19.30
2009,08,23,13,21,19.40
2009,08,23,13,22,19.40
2009,08,23,13,23,19.40
2009,08,23,13,24,19.50
2009,08,23,13,25,19.50
2009,08,23,13,26,19.40
2009,08,23,13,27,19.50
2009,08,23,13,28,19.50
2009,08,23,13,29,19.50
2009,08,23,13,30,19.40
2009,08,23,13,31,19.30
2009,08,23,13,32,19.40
2009,08,23,13,33,19.40
2009,08,23,13,34,19.40
2009,08,23,13,35,19.50
2009,08,23,13,36,19.50
2009,08,23,13,37,19.40
2009,08,23,13,38,19.40
2009,08,23,13,39,19.30
2009,08,23,13,40,19.30
2009,08,23,13,41,19.30
2009,08,23,13,42,19.40
2009,08,23,13,43,19.50
2009,08,23,13,44,19.60
2009,08,23,13,45,19.70
2009,08,23,13,46,19.70
2009,08,23,13,47,19.70
2009,08,23,13,48,19.60
2009,08,23,13,49,19.70
2009,08,23,13,50,19.70
2009,08,23,13,51,19.70
2009,08,23,13,52,19.60
2009,08,23,13,53,19.50
2009,08,23,13,54,19.50
2009,08,23,13,55,19.60
2009,08,23,13,56,19.50
2009,08,23,13,57,19.30
2009,08,23,13,58,19.20
2009,08,23,13,59,19.30
2009,08,23,14,00,19.40
2009,08,23,14,01,19.50
2009,08,23,14,02,19.60
2009,08,23,14,03,19.70
2009,08,23,14,04,19.70
2009,08,23,14,05,19.80
2009,08,23,14,06,19.90
2009,08,23,14,07,19.90
2009,08,23,14,08,19.90
2009,08,23,14,09,19.90
2009,08,23,14,10,19.90
2009,08,23,14,11,19.90
2009,08,23,14,12,19.90
2009,08,23,14,13,20.00
2009,08,23,14,14,20.00
2009,08,23,14,15,20.10
2009,08,23,14,16,20.10
2009,08,23,14,17,20.20
2009,08,23,14,18,20.30
2009,08,23,14,19,20.30
2009,08,23,14,20,20.40
2009,08,23,14,21,20.40
2009,08,23,14,22,20.30
2009,08,23,14,23,20.10
2009,08,23,14,24,19.80
2009,08,23,14,25,19.60
2009,08,23,14,26,19.50
2009,08,23,14,27,19.40
2009,08,23,14,28,19.30
2009,08,23,14,29,19.20
2009,08,23,14,30,19.20
2009,08,23,14,31,19.20
2009,08,23,14,32,19.30
2009,08,23,14,33,19.40
2009,08,23,14,34,19.40
2009,08,23,14,35,19.40
2009,08,23,14,36,19.40
2009,08,23,14,37,19.50
2009,08,23,14,38,19.60
2009,08,23,14,39,19.60
2009,08,23,14,40,19.60
2009,08,23,14,41,19.60
2009,08,23,14,42,19.60
2009,08,23,14,43,19.60
2009,08,23,14,44,19.80
2009,08,23,14,45,19.90
2009,08,23,14,46,19.90
2009,08,23,14,47,19.90
2009,08,23,14,48,19.90
2009,08,23,14,49,19.90
2009,08,23,14,50,19.90
2009,08,23,14,51,19.90
2009,08,23,14,52,19.80
2009,08,23,14,53,19.80
2009,08,23,14,54,19.80
2009,08,23,14,55,19.70
2009,08,23,14,56,19.50
2009,08,23,14,57,19.30
2009,08,23,14,58,19.30
2009,08,23,14,59,19.30
2009,08,23,15,00,19.20
2009,08,23,15,01,19.20
2009,08,23,15,02,19.20
2009,08,23,15,03,19.30
2009,08,23,15,04,19.30
2009,08,23,15,05,19.40
2009,08,23,15,06,19.40
2009,08,23,15,07,19.40
2009,08,23,15,08,19.50
2009,08,23,15,09,19.50
2009,08,23,15,10,19.40
2009,08,23,15,11,19.40
2009,08,23,15,12,19.40
2009,08,23,15,13,19.40
2009,08,23,15,14,19.50
2009,08,23,15,15,19.50
2009,08,23,15,16,19.60
2009,08,23,15,17,19.70
2009,08,23,15,18,19.60
2009,08,23,15,19,19.60
2009,08,23,15,20,19.60
2009,08,23,15,21,19.60
2009,08,23,15,22,19.60
2009,08,23,15,23,19.40
2009,08,23,15,24,19.40
2009,08,23,15,25,19.40
2009,08,23,15,26,19.40
2009,08,23,15,27,19.40
2009,08,23,15,28,19.40
2009,08,23,15,29,19.30
2009,08,23,15,30,19.30
2009,08,23,15,31,19.40
2009,08,23,15,32,19.40
2009,08,23,15,33,19.30
2009,08,23,15,34,19.30
2009,08,23,15,35,19.30
2009,08,23,15,36,19.40
2009,08,23,15,37,19.40
2009,08,23,15,38,19.40
2009,08,23,15,39,19.50
2009,08,23,15,40,19.50
2009,08,23,15,41,19.50
2009,08,23,15,42,19.40
2009,08,23,15,43,19.40
2009,08,23,15,44,19.50
2009,08,23,15,45,19.60
2009,08,23,15,46,19.60
2009,08,23,15,47,19.60
2009,08,23,15,48,19.50
2009,08,23,15,49,19.40
2009,08,23,15,50,19.30
2009,08,23,15,51,19.20
2009,08,23,15,52,19.20
2009,08,23,15,53,19.20
2009,08,23,15,54,19.10
2009,08,23,15,55,19.20
2009,08,23,15,56,19.20
2009,08,23,15,57,19.30
2009,08,23,15,58,19.30
2009,08,23,15,59,19.30
2009,08,23,16,00,19.30
2009,08,23,16,01,19.40
2009,08,23,16,02,19.40
2009,08,23,16,03,19.50
2009,08,23,16,04,19.60
2009,08,23,16,05,19.60
2009,08,23,16,06,19.70
2009,08,23,16,07,19.70
2009,08,23,16,08,19.70
2009,08,23,16,09,19.70
2009,08,23,16,10,19.80
2009,08,23,16,11,19.70
2009,08,23,16,12,19.70
2009,08,23,16,13,19.60
2009,08,23,16,14,19.60
2009,08,23,16,15,19.60
2009,08,23,16,16,19.50
2009,08,23,16,17,19.50
2009,08,23,16,18,19.50
2009,08,23,16,19,19.50
2009,08,23,16,20,19.50
2009,08,23,16,21,19.50
2009,08,23,16,22,19.40
2009,08,23,16,23,19.50
2009,08,23,16,24,19.50
2009,08,23,16,25,19.50
2009,08,23,16,26,19.50
2009,08,23,16,27,19.60
2009,08,23,16,28,19.60
2009,08,23,16,29,19.60
2009,08,23,16,30,19.60
2009,08,23,16,31,19.70
2009,08,23,16,32,19.70
2009,08,23,16,33,19.80
2009,08,23,16,34,19.80
2009,08,23,16,35,19.70
2009,08,23,16,36,19.70
2009,08,23,16,37,19.60
2009,08,23,16,38,19.60
2009,08,23,16,39,19.60
2009,08,23,16,40,19.60
2009,08,23,16,41,19.50
2009,08,23,16,42,19.50
2009,08,23,16,43,19.50
2009,08,23,16,44,19.40
2009,08,23,16,45,19.30
2009,08,23,16,46,19.30
2009,08,23,16,47,19.30
2009,08,23,16,48,19.30
2009,08,23,16,49,19.20
2009,08,23,16,50,19.20
2009,08,23,16,51,19.20
2009,08,23,16,52,19.20
2009,08,23,16,53,19.20
2009,08,23,16,54,19.30
2009,08,23,16,55,19.40
2009,08,23,16,56,19.40
2009,08,23,16,57,19.50
2009,08,23,16,58,19.50
2009,08,23,16,59,19.50
2009,08,23,17,00,19.60
2009,08,23,17,01,19.60
2009,08,23,17,02,19.60
2009,08,23,17,03,19.70
2009,08,23,17,04,19.70
2009,08,23,17,05,19.70
2009,08,23,17,06,19.70
2009,08,23,17,07,19.70
2009,08,23,17,08,19.80
2009,08,23,17,09,19.80
2009,08,23,17,10,19.80
2009,08,23,17,11,19.80
2009,08,23,17,12,19.80
2009,08,23,17,13,19.80
2009,08,23,17,14,19.70
2009,08,23,17,15,19.70
2009,08,23,17,16,19.70
2009,08,23,17,17,19.70
2009,08,23,17,18,19.70
2009,08,23,17,19,19.60
2009,08,23,17,20,19.60
2009,08,23,17,21,19.50
2009,08,23,17,22,19.40
2009,08,23,17,23,19.30
2009,08,23,17,24,19.30
2009,08,23,17,25,19.40
2009,08,23,17,26,19.30
2009,08,23,17,27,19.30
2009,08,23,17,28,19.30
2009,08,23,17,29,19.30
2009,08,23,17,30,19.20
2009,08,23,17,31,19.20
2009,08,23,17,32,19.30
2009,08,23,17,33,19.20
2009,08,23,17,34,19.20
2009,08,23,17,35,19.20
2009,08,23,17,36,19.20
2009,08,23,17,37,19.20
2009,08,23,17,38,19.20
2009,08,23,17,39,19.20
2009,08,23,17,40,19.20
2009,08,23,17,41,19.20
2009,08,23,17,42,19.20
2009,08,23,17,43,19.20
2009,08,23,17,44,19.10
2009,08,23,17,45,19.10
2009,08,23,17,46,19.10
2009,08,23,17,47,19.10
2009,08,23,17,48,19.10
2009,08,23,17,49,19.10
2009,08,23,17,50,19.10
2009,08,23,17,51,19.10
2009,08,23,17,52,19.10
2009,08,23,17,53,19.10
2009,08,23,17,54,19.10
2009,08,23,17,55,19.10
2009,08,23,17,56,19.10
2009,08,23,17,57,19.10
2009,08,23,17,58,19.00
2009,08,23,17,59,19.00
2009,08,23,18,00,18.90
2009,08,23,18,01,18.90
2009,08,23,18,02,18.80
2009,08,23,18,03,18.70
2009,08,23,18,04,18.70
2009,08,23,18,05,18.70
2009,08,23,18,06,18.60
2009,08,23,18,07,18.60
2009,08,23,18,08,18.60
2009,08,23,18,09,18.60
2009,08,23,18,10,18.60
2009,08,23,18,11,18.60
2009,08,23,18,12,18.60
2009,08,23,18,13,18.60
2009,08,23,18,14,18.60
2009,08,23,18,15,18.60
2009,08,23,18,16,18.60
2009,08,23,18,17,18.60
2009,08,23,18,18,18.60
2009,08,23,18,19,18.60
